Temp
9 9 9 9 9 9 9 9 9 9 9 9 9 9 8 8 9 9 10 10 10 10
10 9 9 9 9 9 9 9 8 8 8 8 8 8 8 8 9 9 9 10 9 10
10 10 9 9 9 9 9 8 8 8 8 8 8 8 8 8 8 8 9 10 10 9
10 10 9 9 9 9 8 8 8 8 8 8 8 8 8 8 8 8 8 7 8 9
10 9 9 9 8 8 8 8 8 8 8 8 7 7 7 7 7 7 7 7 6 7
9 9 9 9 8 8 8 8 8 7 7 7 7 7 6 7 7 7 6 6 6 7
9 8 8 8 8 7 7 7 7 6 6 6 6 6 5 5 5 5 5 4 5 5
8 8 8 7 7 7 6 5 5 5 4 4 5 5 5 5 4 4 4 4 4 5
7 7 6 6 5 4 4 3 3 3 4 3 3 4 5 5 3 4 4 4 3 2
5 5 4 3 3 2 2 2 2 1 2 4 2 2 3 4 4 3 3 2 1 0
4 3 3 2 2 2 2 2 2 2 2 1 1 1 0 3 3 2 1 1 1 1
3 3 3 2 2 2 2 1 1 1 1 1 1 1 3 3 1 -0 -1 -1 -0 1
3 2 2 2 2 1 2 1 1 1 1 1 0 0 1 1 -0 -1 -2 -1 -2 -1
3 3 2 2 1 1 1 1 0 0 -0 -0 -0 -0 1 -0 2 2 -1 -2 -2 -2
Height
750 751 751 753 755 757 759 761 763 767 772 775 780 786 793 800 804 810 816 820 821 831
747 748 748 750 753 755 757 760 763 766 769 773 778 782 789 795 802 808 813 817 820 827
743 744 746 747 750 752 754 757 760 764 767 771 775 781 788 794 800 806 810 815 818 827
739 741 742 744 746 748 751 754 758 761 765 768 772 778 785 791 797 803 809 814 818 822
737 737 739 741 743 745 748 752 755 758 761 766 770 775 782 788 795 799 806 812 818 820
735 735 736 738 740 742 745 748 752 754 758 762 767 773 780 785 792 798 805 811 816 818
733 733 734 736 737 740 742 745 748 752 755 760 765 771 779 783 791 796 803 810 816 820
732 732 733 734 735 737 741 743 747 751 755 760 764 770 776 784 792 800 808 812 817 821
730 731 732 733 735 737 740 743 748 752 754 761 766 771 778 785 794 800 807 811 818 824
730 731 733 735 737 739 742 746 751 756 758 761 772 777 783 789 796 803 809 815 819 823
731 733 735 738 741 744 747 750 754 759 763 768 777 782 786 792 799 806 811 816 820 825
734 736 738 741 744 748 752 755 758 763 767 773 780 786 791 797 803 809 815 822 825 827
736 738 740 744 747 752 755 758 764 770 775 778 784 791 795 800 805 812 818 824 828 830
739 741 744 747 750 755 759 763 769 775 780 784 789 795 799 805 809 813 818 824 828 831
Wind_Speed
15 16 18 22 21 22 21 21 27 30 32 34 36 37 36 33 32 31 31 32 30 25
15 16 16 17 19 22 23 22 24 29 29 29 31 34 32 31 31 31 32 28 27 23
14 15 16 17 19 20 21 22 25 28 30 30 31 31 29 29 30 30 27 25 23 23
15 15 15 18 19 19 21 23 25 28 29 30 30 30 29 29 31 29 26 24 23 20
13 14 16 18 18 18 20 23 26 28 31 30 31 31 30 29 27 28 25 23 24 22
12 15 18 17 17 18 22 25 28 28 30 31 31 30 27 28 28 25 26 24 24 22
11 12 16 16 15 20 24 27 28 28 29 30 30 28 27 26 26 24 25 25 23 22
11 11 12 15 19 22 24 25 26 27 27 27 28 28 25 26 28 31 29 26 22 19
9 10 12 14 18 21 22 24 25 27 31 29 27 28 29 30 32 30 28 26 23 21
11 13 13 16 19 22 25 26 27 26 29 30 26 27 32 32 32 33 31 29 26 22
13 16 16 19 22 23 26 29 29 30 32 34 31 29 29 35 34 30 26 22 20 22
14 19 20 22 24 25 26 26 27 29 32 32 29 28 29 29 30 28 24 22 20 18
17 22 23 23 25 23 25 28 29 27 28 29 29 25 29 31 30 30 25 20 17 14
18 20 22 26 27 29 28 31 29 27 26 28 26 24 25 25 27 26 25 22 18 14
Wind_Direction
264 251 247 238 224 218 211 210 211 208 208 204 203 203 200 197 201 202 204 205 201 207
267 255 239 239 238 232 222 218 213 207 199 199 198 199 197 200 205 211 214 212 199 206
263 258 250 243 239 233 225 213 208 202 201 199 201 198 197 201 205 209 210 215 213 218
264 252 251 245 240 237 224 210 209 206 204 204 201 199 199 203 208 207 198 191 189 188
275 257 246 242 237 229 219 212 209 204 202 202 195 192 196 193 191 189 187 187 182 169
277 257 244 239 238 226 216 208 205 201 200 196 194 192 190 187 177 176 181 180 178 165
281 255 245 235 226 214 208 203 197 196 190 181 174 170 170 170 172 174 174 168 159 152
271 245 232 217 201 198 194 191 190 183 175 169 164 165 163 161 156 151 148 144 142 138
218 190 194 190 180 176 171 166 164 159 158 152 152 158 159 156 148 146 146 140 139 137
181 162 168 163 157 148 145 149 144 134 138 142 144 150 155 153 153 156 153 149 144 135
160 148 148 145 140 133 136 138 136 138 134 133 138 139 141 155 151 148 146 144 142 147
164 150 148 144 141 141 135 128 126 129 130 131 133 140 148 151 148 140 137 148 146 143
156 146 143 141 136 133 129 124 125 123 128 131 136 152 158 154 142 142 140 133 130 128
167 158 151 142 138 134 126 125 122 120 125 132 139 141 148 145 151 145 141 139 131 123